PDT,Max TemperatureF,Mean TemperatureF,Min TemperatureF,Max Dew PointF,MeanDew PointF,Min DewpointF,Max Humidity, Mean Humidity, Min Humidity, Max Sea Level PressureIn, Mean Sea Level PressureIn, Min Sea Level PressureIn, Max VisibilityMiles, Mean VisibilityMiles, Min VisibilityMiles, Max Wind SpeedMPH, Mean Wind SpeedMPH, Max Gust SpeedMPH,PrecipitationIn, CloudCover, Events, WindDirDegrees
2013-5-1,53,48,43,45,39,33,82,68,56,30.58,30.53,30.40,,,,15,10,,0.00,,,172
2013-5-2,54,50,45,47,44,40,82,76,64,30.55,30.47,30.39,,,,21,8,,0.00,,,261
2013-5-3,60,56,51,48,47,45,82,73,56,30.43,30.35,30.24,,,,23,16,,0.00,,,268
2013-5-4,62,57,52,49,47,44,82,70,40,30.28,30.19,30.02,,,,21,16,,0.00,,,273
2013-5-5,66,59,52,50,48,46,83,64,42,30.02,29.90,29.77,,,,18,12,,0.00,,,272
2013-5-6,68,62,57,54,50,46,78,64,42,29.85,29.80,29.72,,,,18,10,,0.00,,,261
2013-5-7,63,60,56,55,52,50,91,77,64,29.91,29.87,29.77,,,,20,12,,0.00,,,126
2013-5-8,57,56,54,54,52,51,91,85,76,30.09,30.05,29.93,,,,18,11,,0.00,,,112
2013-5-9,61,58,54,55,52,51,92,83,71,30.19,30.14,30.08,,,,10,8,,0.00,,,114
2013-5-10,63,58,53,56,53,50,93,81,61,30.18,30.14,30.09,,,,10,5,,0.00,,,114
2013-5-11,59,57,55,55,52,49,92,83,72,30.12,30.05,29.95,,,,18,10,,0.12,,,108
2013-5-12,61,58,54,55,53,46,96,86,53,29.99,29.96,29.93,,,,21,13,,0.08,,,116
2013-5-13,59,54,50,52,47,40,94,75,59,30.07,29.93,29.84,,,,17,7,,0.12,,,159
2013-5-14,55,52,50,48,45,40,83,72,61,30.16,30.12,30.09,,,,20,7,,0.00,,,118
2013-5-15,56,54,51,50,48,46,88,80,69,30.09,30.04,29.97,,,,14,10,,0.04,,,102
2013-5-16,61,56,51,53,50,48,94,83,70,29.99,29.95,29.87,,,,9,4,,0.02,,,172
2013-5-17,57,56,54,54,52,49,92,87,74,29.97,29.92,29.89,,,,21,8,,0.12,,,133
2013-5-18,57,54,52,51,49,45,85,79,66,30.23,30.09,29.98,,,,13,6,,0.02,,,127
2013-5-19,60,56,52,51,47,45,89,71,53,30.38,30.33,30.25,,,,22,16,,0.00,,,271
2013-5-20,57,54,52,51,49,47,90,80,71,30.32,30.14,29.93,,,,17,8,,0.16,,,274
2013-5-21,53,50,47,47,44,42,92,79,61,29.91,29.79,29.76,,,,22,13,,0.24,,,275
2013-5-22,59,54,49,49,46,44,88,74,60,29.86,29.84,29.79,,,,12,6,18,0.04,,,82
2013-5-23,57,53,49,48,46,44,87,76,57,29.97,29.93,29.85,,,,28,14,33,0.20,,,109
2013-5-24,60,54,49,50,46,42,81,71,63,29.98,29.97,29.96,,,,12,6,,0.00,,,130
2013-5-25,57,53,49,50,47,44,83,78,66,29.99,29.98,29.96,,,,18,9,,0.01,,,175
2013-5-26,58,54,51,52,50,47,89,82,75,29.97,29.94,29.91,,,,22,9,,0.00,,,166
2013-5-27,56,54,53,52,51,50,93,88,73,29.89,29.73,29.66,,,,25,19,31,0.12,,,117
2013-5-28,53,52,52,52,51,50,95,92,84,29.81,29.75,29.69,,,,25,17,,0.04,,,117
2013-5-29,53,52,50,50,49,48,94,89,84,29.87,29.76,29.68,,,,14,8,,0.08,,,215
2013-5-30,54,52,49,50,47,42,92,81,69,30.18,30.03,29.88,,,,26,8,,0.20,,,134
2013-5-31,58,54,51,51,49,47,92,80,58,30.32,30.27,30.19,,,,12,6,,0.01,,,103